Time,TemperatureF,DewpointF,PressureIn,WindDirection,WindDirectionDegrees,WindSpeedMPH,WindSpeedGustMPH,Humidity,HourlyPrecipIn,Conditions,Clouds,dailyrainin,SolarRadiationWatts/m^2,SoftwareType,DateUTC
2013-05-27 00:22:00,72.0,71.0,-100.00,SSE,159,15.0,24.0,98,0.00,,,0.00,0.000000,,2013-05-27 05:22:00,
2013-05-27 00:32:00,72.0,71.0,-100.00,SSE,159,15.0,24.0,98,0.00,,,0.00,0.000000,,2013-05-27 05:32:00,
2013-05-27 00:42:00,72.0,71.0,-100.00,SSE,159,15.0,24.0,98,0.00,,,0.00,0.000000,,2013-05-27 05:42:00,
2013-05-27 00:52:00,72.0,71.0,-100.00,SSE,159,15.0,24.0,98,0.00,,,0.00,0.000000,,2013-05-27 05:52:00,
2013-05-27 01:22:00,71.0,71.0,-100.00,SSE,153,13.0,19.0,100,0.00,,,0.00,0.000000,,2013-05-27 06:22:00,
2013-05-27 01:32:00,71.0,71.0,-100.00,SSE,153,13.0,19.0,100,0.00,,,0.00,0.000000,,2013-05-27 06:32:00,
2013-05-27 01:42:00,71.0,71.0,-100.00,SSE,153,13.0,19.0,100,0.00,,,0.00,0.000000,,2013-05-27 06:42:00,
2013-05-27 01:52:00,71.0,71.0,-100.00,SSE,153,13.0,19.0,100,0.00,,,0.00,0.000000,,2013-05-27 06:52:00,
2013-05-27 02:21:00,70.0,70.0,-100.00,SE,145,12.0,16.0,100,0.00,,,0.00,0.000000,,2013-05-27 07:21:00,
2013-05-27 02:32:00,70.0,70.0,-100.00,SE,145,12.0,16.0,100,0.00,,,0.00,0.000000,,2013-05-27 07:32:00,
2013-05-27 02:42:00,70.0,70.0,-100.00,SE,145,12.0,16.0,100,0.00,,,0.00,0.000000,,2013-05-27 07:42:00,
2013-05-27 02:52:00,70.0,70.0,-100.00,SE,145,12.0,16.0,100,0.00,,,0.00,0.000000,,2013-05-27 07:52:00,
2013-05-27 03:22:00,65.0,64.0,-100.00,NE,35,14.0,28.0,98,0.00,,,0.00,0.000000,,2013-05-27 08:22:00,
2013-05-27 03:33:00,65.0,64.0,-100.00,NE,35,14.0,28.0,98,0.00,,,0.00,0.000000,,2013-05-27 08:33:00,
2013-05-27 03:42:00,65.0,64.0,-100.00,NE,35,14.0,28.0,98,0.00,,,0.00,0.000000,,2013-05-27 08:42:00,
2013-05-27 03:52:00,65.0,64.0,-100.00,NE,35,14.0,28.0,98,0.00,,,0.00,0.000000,,2013-05-27 08:52:00,
2013-05-27 04:21:00,62.0,62.0,-100.00,ENE,63,15.0,27.0,100,0.00,,,0.00,0.000000,,2013-05-27 09:21:00,
2013-05-27 04:33:00,62.0,62.0,-100.00,ENE,63,15.0,27.0,100,0.00,,,0.00,0.000000,,2013-05-27 09:33:00,
2013-05-27 04:42:00,62.0,62.0,-100.00,ENE,63,15.0,27.0,100,0.00,,,0.00,0.000000,,2013-05-27 09:42:00,
2013-05-27 04:53:00,62.0,62.0,-100.00,ENE,63,15.0,27.0,100,0.00,,,0.00,0.000000,,2013-05-27 09:53:00,
2013-05-27 05:22:00,61.0,61.0,-100.00,ENE,78,15.0,22.0,100,0.00,,,0.00,0.000000,,2013-05-27 10:22:00,
2013-05-27 05:32:00,61.0,61.0,-100.00,ENE,78,15.0,22.0,100,0.00,,,0.00,0.000000,,2013-05-27 10:32:00,
2013-05-27 05:42:00,61.0,61.0,-100.00,ENE,78,15.0,22.0,100,0.00,,,0.00,0.000000,,2013-05-27 10:42:00,
2013-05-27 05:52:00,61.0,61.0,-100.00,ENE,78,15.0,22.0,100,0.00,,,0.00,0.000000,,2013-05-27 10:52:00,
2013-05-27 06:22:00,60.0,60.0,-100.00,East,93,14.0,22.0,100,0.00,,,0.00,0.000000,,2013-05-27 11:22:00,
2013-05-27 06:32:00,60.0,60.0,-100.00,East,93,14.0,22.0,100,0.00,,,0.00,0.000000,,2013-05-27 11:32:00,
2013-05-27 06:42:00,60.0,60.0,-100.00,East,93,14.0,22.0,100,0.00,,,0.00,0.000000,,2013-05-27 11:42:00,
2013-05-27 06:52:00,60.0,60.0,-100.00,East,93,14.0,22.0,100,0.00,,,0.00,0.000000,,2013-05-27 11:52:00,
2013-05-27 07:22:00,60.0,60.0,-100.00,NE,50,18.0,25.0,100,0.00,,,0.00,0.000000,,2013-05-27 12:22:00,
2013-05-27 07:32:00,60.0,60.0,-100.00,NE,50,18.0,25.0,100,0.00,,,0.00,0.000000,,2013-05-27 12:32:00,
2013-05-27 07:42:00,60.0,60.0,-100.00,NE,50,18.0,25.0,100,0.00,,,0.00,0.000000,,2013-05-27 12:42:00,
2013-05-27 07:52:00,60.0,60.0,-100.00,NE,50,18.0,25.0,100,0.00,,,0.00,0.000000,,2013-05-27 12:52:00,
2013-05-27 08:22:00,60.0,60.0,-100.00,East,98,19.0,25.0,100,0.00,,,0.00,0.000000,,2013-05-27 13:22:00,
2013-05-27 08:32:00,60.0,60.0,-100.00,East,98,19.0,25.0,100,0.00,,,0.00,0.000000,,2013-05-27 13:32:00,
2013-05-27 08:42:00,60.0,60.0,-100.00,East,98,19.0,25.0,100,0.00,,,0.00,0.000000,,2013-05-27 13:42:00,
2013-05-27 08:52:00,60.0,60.0,-100.00,East,98,19.0,25.0,100,0.00,,,0.00,0.000000,,2013-05-27 13:52:00,
2013-05-27 09:22:00,62.0,62.0,-100.00,ESE,105,18.0,27.0,100,0.00,,,0.00,0.000000,,2013-05-27 14:22:00,
2013-05-27 09:32:00,62.0,62.0,-100.00,ESE,105,18.0,27.0,100,0.00,,,0.00,0.000000,,2013-05-27 14:32:00,
2013-05-27 09:42:00,62.0,62.0,-100.00,ESE,105,18.0,27.0,100,0.00,,,0.00,0.000000,,2013-05-27 14:42:00,
2013-05-27 09:52:00,62.0,62.0,-100.00,ESE,105,18.0,27.0,100,0.00,,,0.00,0.000000,,2013-05-27 14:52:00,
2013-05-27 10:21:00,66.0,65.0,-100.00,SE,126,24.0,34.0,97,0.00,,,0.00,0.000000,,2013-05-27 15:21:00,
2013-05-27 10:33:00,66.0,65.0,-100.00,SE,126,24.0,34.0,97,0.00,,,0.00,0.000000,,2013-05-27 15:33:00,
2013-05-27 10:43:00,66.0,65.0,-100.00,SE,126,24.0,34.0,97,0.00,,,0.00,0.000000,,2013-05-27 15:43:00,
2013-05-27 10:53:00,66.0,65.0,-100.00,SE,126,24.0,34.0,97,0.00,,,0.00,0.000000,,2013-05-27 15:53:00,
2013-05-27 11:23:00,69.0,66.0,-100.00,SE,124,21.0,35.0,89,0.00,,,0.00,0.000000,,2013-05-27 16:23:00,
2013-05-27 11:33:00,69.0,66.0,-100.00,SE,124,21.0,35.0,89,0.00,,,0.00,0.000000,,2013-05-27 16:33:00,
2013-05-27 11:42:00,69.0,66.0,-100.00,SE,124,21.0,35.0,89,0.00,,,0.00,0.000000,,2013-05-27 16:42:00,
2013-05-27 11:52:00,69.0,66.0,-100.00,SE,124,21.0,35.0,89,0.00,,,0.00,0.000000,,2013-05-27 16:52:00,
2013-05-27 12:22:00,72.0,66.0,-100.00,SE,136,18.0,28.0,81,0.00,,,0.00,0.000000,,2013-05-27 17:22:00,
2013-05-27 12:32:00,72.0,66.0,-100.00,SE,136,18.0,28.0,81,0.00,,,0.00,0.000000,,2013-05-27 17:32:00,
2013-05-27 12:43:00,72.0,66.0,-100.00,SE,136,18.0,28.0,81,0.00,,,0.00,0.000000,,2013-05-27 17:43:00,
2013-05-27 12:52:00,72.0,66.0,-100.00,SE,136,18.0,28.0,81,0.00,,,0.00,0.000000,,2013-05-27 17:52:00,
2013-05-27 13:22:00,75.0,65.0,-100.00,SE,133,17.0,25.0,70,0.00,,,0.00,0.000000,,2013-05-27 18:22:00,
2013-05-27 13:32:00,75.0,65.0,-100.00,SE,133,17.0,25.0,70,0.00,,,0.00,0.000000,,2013-05-27 18:32:00,
2013-05-27 13:42:00,75.0,65.0,-100.00,SE,133,17.0,25.0,70,0.00,,,0.00,0.000000,,2013-05-27 18:42:00,
2013-05-27 13:52:00,75.0,65.0,-100.00,SE,133,17.0,25.0,70,0.00,,,0.00,0.000000,,2013-05-27 18:52:00,
2013-05-27 14:21:00,77.0,64.0,-100.00,SE,127,13.0,24.0,65,0.00,,,0.00,0.000000,,2013-05-27 19:21:00,
2013-05-27 14:32:00,77.0,64.0,-100.00,SE,127,13.0,24.0,65,0.00,,,0.00,0.000000,,2013-05-27 19:32:00,
2013-05-27 14:42:00,77.0,64.0,-100.00,SE,127,13.0,24.0,65,0.00,,,0.00,0.000000,,2013-05-27 19:42:00,
2013-05-27 14:52:00,77.0,64.0,-100.00,SE,127,13.0,24.0,65,0.00,,,0.00,0.000000,,2013-05-27 19:52:00,
2013-05-27 15:22:00,79.0,63.0,-100.00,ESE,122,16.0,30.0,58,0.00,,,0.00,0.000000,,2013-05-27 20:22:00,
2013-05-27 15:32:00,79.0,63.0,-100.00,ESE,122,16.0,30.0,58,0.00,,,0.00,0.000000,,2013-05-27 20:32:00,
2013-05-27 15:42:00,79.0,63.0,-100.00,ESE,122,16.0,30.0,58,0.00,,,0.00,0.000000,,2013-05-27 20:42:00,
2013-05-27 15:52:00,79.0,63.0,-100.00,ESE,122,16.0,30.0,58,0.00,,,0.00,0.000000,,2013-05-27 20:52:00,
2013-05-27 16:21:00,79.0,66.0,-100.00,ESE,116,10.0,21.0,65,0.00,,,0.00,0.000000,,2013-05-27 21:21:00,
2013-05-27 16:33:00,79.0,66.0,-100.00,ESE,116,10.0,21.0,65,0.00,,,0.00,0.000000,,2013-05-27 21:33:00,
2013-05-27 16:43:00,79.0,66.0,-100.00,ESE,116,10.0,21.0,65,0.00,,,0.00,0.000000,,2013-05-27 21:43:00,
2013-05-27 16:53:00,79.0,66.0,-100.00,ESE,116,10.0,21.0,65,0.00,,,0.00,0.000000,,2013-05-27 21:53:00,
2013-05-27 17:22:00,79.0,66.0,-100.00,ESE,104,12.0,19.0,64,0.00,,,0.00,0.000000,,2013-05-27 22:22:00,
2013-05-27 17:33:00,79.0,66.0,-100.00,ESE,104,12.0,19.0,64,0.00,,,0.00,0.000000,,2013-05-27 22:33:00,
2013-05-27 17:42:00,79.0,66.0,-100.00,ESE,104,12.0,19.0,64,0.00,,,0.00,0.000000,,2013-05-27 22:42:00,
2013-05-27 17:52:00,79.0,66.0,-100.00,ESE,104,12.0,19.0,64,0.00,,,0.00,0.000000,,2013-05-27 22:52:00,
2013-05-27 18:22:00,76.0,68.0,-100.00,East,88,10.0,16.0,77,0.00,,,0.00,0.000000,,2013-05-27 23:22:00,
2013-05-27 18:32:00,76.0,68.0,-100.00,East,88,10.0,16.0,77,0.00,,,0.00,0.000000,,2013-05-27 23:32:00,
2013-05-27 18:42:00,76.0,68.0,-100.00,East,88,10.0,16.0,77,0.00,,,0.00,0.000000,,2013-05-27 23:42:00,
2013-05-27 18:52:00,76.0,68.0,-100.00,East,88,10.0,16.0,77,0.00,,,0.00,0.000000,,2013-05-27 23:52:00,
2013-05-27 19:21:00,74.0,70.0,-100.00,NE,47,15.0,19.0,86,0.00,,,0.00,0.000000,,2013-05-28 00:21:00,
2013-05-27 19:32:00,74.0,70.0,-100.00,NE,47,15.0,19.0,86,0.00,,,0.00,0.000000,,2013-05-28 00:32:00,
2013-05-27 19:42:00,74.0,70.0,-100.00,NE,47,15.0,19.0,86,0.00,,,0.00,0.000000,,2013-05-28 00:42:00,
2013-05-27 19:52:00,74.0,70.0,-100.00,NE,47,15.0,19.0,86,0.00,,,0.00,0.000000,,2013-05-28 00:52:00,
2013-05-27 20:22:00,66.0,66.0,-100.00,ENE,67,20.0,30.0,100,1.54,,,1.54,0.000000,,2013-05-28 01:22:00,
2013-05-27 20:32:00,66.0,66.0,-100.00,ENE,67,20.0,30.0,100,1.54,,,1.54,0.000000,,2013-05-28 01:32:00,
2013-05-27 20:41:00,66.0,66.0,-100.00,ENE,67,20.0,30.0,100,1.54,,,1.54,0.000000,,2013-05-28 01:41:00,
2013-05-27 20:52:00,66.0,66.0,-100.00,ENE,67,20.0,30.0,100,1.54,,,1.54,0.000000,,2013-05-28 01:52:00,
2013-05-27 21:21:00,67.0,66.0,-100.00,East,84,21.0,39.0,97,0.09,,,1.63,0.000000,,2013-05-28 02:21:00,
2013-05-27 21:32:00,67.0,66.0,-100.00,East,84,21.0,39.0,97,0.09,,,1.63,0.000000,,2013-05-28 02:32:00,
2013-05-27 21:42:00,67.0,66.0,-100.00,East,84,21.0,39.0,97,0.09,,,1.63,0.000000,,2013-05-28 02:42:00,
2013-05-27 21:52:00,67.0,66.0,-100.00,East,84,21.0,39.0,97,0.09,,,1.63,0.000000,,2013-05-28 02:52:00,
2013-05-27 22:21:00,65.0,61.0,-100.00,ESE,104,15.0,27.0,88,0.00,,,1.63,0.000000,,2013-05-28 03:21:00,
2013-05-27 22:33:00,65.0,61.0,-100.00,ESE,104,15.0,27.0,88,0.00,,,1.63,0.000000,,2013-05-28 03:33:00,
2013-05-27 22:43:00,65.0,61.0,-100.00,ESE,104,15.0,27.0,88,0.00,,,1.63,0.000000,,2013-05-28 03:43:00,
2013-05-27 22:53:00,65.0,61.0,-100.00,ESE,104,15.0,27.0,88,0.00,,,1.63,0.000000,,2013-05-28 03:53:00,
2013-05-27 23:22:00,63.0,62.0,-100.00,East,93,7.0,19.0,97,0.00,,,1.63,0.000000,,2013-05-28 04:22:00,
2013-05-27 23:33:00,63.0,62.0,-100.00,East,93,7.0,19.0,97,0.00,,,1.63,0.000000,,2013-05-28 04:33:00,
2013-05-27 23:43:00,63.0,62.0,-100.00,East,93,7.0,19.0,97,0.00,,,1.63,0.000000,,2013-05-28 04:43:00,
2013-05-27 23:52:00,63.0,62.0,-100.00,East,93,7.0,19.0,97,0.00,,,1.63,0.000000,,2013-05-28 04:52:00,